Weather History for Pampa, TX

Change the Weather History Date:

Tuesday, January 7, 2014

  Actual Average Record
Temperature  
Mean Temperature 36 °F -  
Max Temperature 53 °F 45 °F 76 °F (1965)
Min Temperature 18 °F 18 °F -3 °F (1988)
Degree Days  
Heating Degree Days 30    
Moisture  
Dew Point 12 °F    
Average Humidity 43    
Maximum Humidity 65    
Minimum Humidity 17    
Precipitation  
Precipitation 0.00 in - - ()
Sea Level Pressure  
Sea Level Pressure 30.11 in    
Wind  
Wind Speed 15 mph (SW)    
Max Wind Speed 22 mph    
Max Gust Speed 28 mph    
Visibility 10 miles    
Events      
Averages and records for this station are not official NWS values.
T = Trace of Precipitation, MM = Missing Value Source: NWS Daily Summary

Daily Weather History Graph

Daily Weather History Graph

Search for Another Location

Airport:

Trip Planner

Search our weather history database for the weather conditions in past years. The results will help you decide how hot, cold, wet, or windy it might be!

Date:

Astronomy

Jan. 07, 2014 Rise Set
Actual Time 7:54 AM CST 5:46 PM CST
Civil Twilight 7:25 AM CST 6:14 PM CST
Nautical Twilight 6:54 AM CST 6:46 PM CST
Astronomical Twilight 6:23 AM CST 7:17 PM CST
Moon 11:59 AM CST (1/7) 12:07 AM CST (1/7)
Length of Visible Light 10h 48m
Length of Day
9h 52m
Waxing Crescent, 46% of the Moon is Illuminated
Jan 7
Waxing Crescent
Jan 7
First Quarter
Jan 15
Full
Jan 23
Last Quarter
Jan 30
New

Hourly Weather History & Observations

Time (CST) Temp. Windchill Dew Point Humidity Pressure Visibility Wind Dir Wind Speed Gust Speed Precip Events Conditions
12:15 AM 23.7 °F 10.5 °F 9.3 °F 54% 30.30 in 10.0 mi WSW 16.1 mph 23.0 mph N/A   Clear
12:35 AM 23.7 °F 9.7 °F 9.3 °F 54% 30.29 in 10.0 mi WSW 18.4 mph 21.9 mph N/A   Clear
12:55 AM 23.7 °F 9.3 °F 9.3 °F 54% 30.29 in 10.0 mi SW 19.6 mph - N/A   Clear
1:15 AM 23.0 °F 9.2 °F 9.3 °F 56% 30.28 in 10.0 mi WSW 17.3 mph - N/A   Clear
1:35 AM 21.9 °F 8.2 °F 9.1 °F 58% 30.27 in 10.0 mi SW 16.1 mph - N/A   Clear
1:55 AM 21.7 °F 7.5 °F 9.1 °F 58% 30.27 in 10.0 mi SW 17.3 mph - N/A   Clear
2:15 AM 20.7 °F 7.1 °F 9.0 °F 61% 30.27 in 10.0 mi WSW 15.0 mph - N/A   Clear
2:35 AM 20.1 °F 6.4 °F 9.0 °F 62% 30.27 in 10.0 mi SW 15.0 mph - N/A   Clear
2:55 AM 19.4 °F 6.6 °F 8.8 °F 63% 30.27 in 10.0 mi SW 12.7 mph - N/A   Clear
3:15 AM 19.0 °F 6.1 °F 8.6 °F 64% 30.25 in 10.0 mi SW 12.7 mph - N/A   Clear
3:35 AM 18.9 °F 5.9 °F 8.8 °F 65% 30.25 in 10.0 mi WSW 12.7 mph - N/A   Clear
3:55 AM 20.7 °F 6.6 °F 9.3 °F 62% 30.23 in 10.0 mi WSW 16.1 mph - N/A   Clear
4:15 AM 21.4 °F 7.5 °F 9.3 °F 60% 30.23 in 10.0 mi WSW 16.1 mph 21.9 mph N/A   Clear
4:35 AM 21.2 °F 6.8 °F 9.3 °F 60% 30.22 in 10.0 mi WSW 17.3 mph - N/A   Clear
4:55 AM 20.1 °F 5.9 °F 9.1 °F 62% 30.21 in 10.0 mi SW 16.1 mph - N/A   Clear
5:15 AM 19.9 °F 5.7 °F 9.3 °F 63% 30.20 in 10.0 mi SW 16.1 mph - N/A   Clear
5:35 AM 20.1 °F 5.9 °F 9.5 °F 63% 30.20 in 10.0 mi WSW 16.1 mph - N/A   Clear
5:55 AM 20.3 °F 6.6 °F 9.5 °F 63% 30.19 in 10.0 mi SW 15.0 mph - N/A   Clear
6:15 AM 20.5 °F 6.4 °F 9.5 °F 63% 30.19 in 10.0 mi WSW 16.1 mph 20.7 mph N/A   Clear
6:35 AM 20.8 °F 6.4 °F 9.7 °F 62% 30.19 in 10.0 mi WSW 17.3 mph 23.0 mph N/A   Clear
6:55 AM 20.3 °F 7.7 °F 9.7 °F 64% 30.19 in 10.0 mi WSW 12.7 mph - N/A   Clear
7:15 AM 20.7 °F 7.6 °F 9.7 °F 63% 30.19 in 10.0 mi WSW 13.8 mph - N/A   Clear
7:35 AM 20.8 °F 7.3 °F 9.9 °F 63% 30.19 in 10.0 mi WSW 15.0 mph - N/A   Clear
7:55 AM 20.8 °F 7.3 °F 10.0 °F 63% 30.19 in 10.0 mi WSW 15.0 mph - N/A   Clear
8:15 AM 21.6 °F 9.3 °F 10.0 °F 61% 30.19 in 10.0 mi WSW 12.7 mph - N/A   Clear
8:35 AM 23.7 °F 9.7 °F 10.0 °F 56% 30.17 in 10.0 mi WSW 18.4 mph - N/A   Clear
8:55 AM 27.5 °F 16.3 °F 10.4 °F 49% 30.18 in 10.0 mi West 13.8 mph - N/A   Clear
9:15 AM 28.9 °F 18.6 °F 11.5 °F 48% 30.18 in 10.0 mi West 12.7 mph - N/A   Clear
9:35 AM 31.1 °F 20.5 °F 12.4 °F 46% 30.18 in 10.0 mi WSW 15.0 mph - N/A   Clear
9:55 AM 33.8 °F 22.5 °F 12.7 °F 42% 30.17 in 10.0 mi WSW 19.6 mph 25.3 mph N/A   Clear
10:15 AM 37.0 °F 27.7 °F 12.9 °F 37% 30.17 in 10.0 mi WSW 16.1 mph 26.5 mph N/A   Clear
10:35 AM 39.0 °F 29.0 °F 12.0 °F 33% 30.17 in 10.0 mi WSW 20.7 mph 25.3 mph N/A   Clear
10:55 AM 41.0 °F 32.2 °F 12.9 °F 32% 30.16 in 10.0 mi WSW 18.4 mph - N/A   Clear
11:15 AM 42.6 °F 33.5 °F 12.0 °F 29% 30.16 in 10.0 mi WSW 21.9 mph 26.5 mph N/A   Clear
11:35 AM 44.2 °F 36.2 °F 12.4 °F 28% 30.14 in 10.0 mi WSW 19.6 mph 25.3 mph N/A   Clear
11:55 AM 46.4 °F 39.8 °F 13.5 °F 27% 30.14 in 10.0 mi WSW 16.1 mph 20.7 mph N/A   Clear
12:15 PM 46.4 °F 39.8 °F 11.7 °F 25% 30.12 in 10.0 mi WSW 16.1 mph 19.6 mph N/A   Clear
12:35 PM 47.7 °F - 10.4 °F 22% 30.11 in 10.0 mi WSW 17.3 mph 27.6 mph N/A   Clear
12:55 PM 47.7 °F - 10.9 °F 23% 30.09 in 10.0 mi SW 16.1 mph 23.0 mph N/A   Clear
1:15 PM 49.1 °F - 11.1 °F 22% 30.08 in 10.0 mi WSW 12.7 mph 20.7 mph N/A   Clear
1:35 PM 50.5 °F - 10.9 °F 20% 30.06 in 10.0 mi SW 12.7 mph - N/A   Clear
1:55 PM 50.5 °F - 9.9 °F 19% 30.05 in 10.0 mi SW 15.0 mph 20.7 mph N/A   Clear
2:15 PM 51.1 °F - 10.2 °F 19% 30.05 in 10.0 mi SW 16.1 mph - N/A   Clear
2:35 PM 52.0 °F - 10.4 °F 19% 30.03 in 10.0 mi SSW 13.8 mph - N/A   Clear
2:55 PM 52.2 °F - 10.6 °F 19% 30.03 in 10.0 mi SSW 13.8 mph 18.4 mph N/A   Clear
3:15 PM 53.6 °F - 9.9 °F 17% 30.02 in 10.0 mi SSW 12.7 mph - N/A   Clear
3:35 PM 52.9 °F - 9.5 °F 18% 30.02 in 10.0 mi South 13.8 mph - N/A   Clear
3:55 PM 52.9 °F - 10.0 °F 18% 30.02 in 10.0 mi SSW 16.1 mph 19.6 mph N/A   Clear
4:15 PM 51.1 °F - 10.9 °F 20% 30.02 in 10.0 mi SSW 11.5 mph - N/A   Clear
4:35 PM 48.7 °F - 10.6 °F 21% 30.01 in 10.0 mi SSW 15.0 mph 21.9 mph N/A   Clear
4:55 PM 48.6 °F - 10.9 °F 22% 30.02 in 10.0 mi SSW 15.0 mph - N/A   Clear
5:15 PM 45.7 °F 40.6 °F 11.3 °F 25% 30.02 in 10.0 mi SSW 10.4 mph - N/A   Clear
5:35 PM 41.9 °F 36.9 °F 12.0 °F 30% 30.02 in 10.0 mi SSW 8.1 mph - N/A   Clear
5:55 PM 37.6 °F 31.0 °F 11.8 °F 35% 30.01 in 10.0 mi South 9.2 mph - N/A   Clear
6:15 PM 36.0 °F 28.5 °F 12.0 °F 37% 30.01 in 10.0 mi South 10.4 mph - N/A   Clear
6:35 PM 36.5 °F 29.2 °F 11.3 °F 35% 30.00 in 10.0 mi South 10.4 mph - N/A   Clear
6:55 PM 37.6 °F 31.0 °F 11.5 °F 34% 30.00 in 10.0 mi South 9.2 mph - N/A   Clear
7:15 PM 38.3 °F 30.9 °F 11.7 °F 34% 30.00 in 10.0 mi South 11.5 mph - N/A   Clear
7:35 PM 39.2 °F 31.6 °F 12.7 °F 34% 30.00 in 10.0 mi South 12.7 mph - N/A   Clear
7:55 PM 39.4 °F 31.8 °F 13.1 °F 34% 29.99 in 10.0 mi South 12.7 mph - N/A   Clear
8:15 PM 38.5 °F 30.7 °F 13.6 °F 36% 29.99 in 10.0 mi South 12.7 mph 17.3 mph N/A   Clear
8:35 PM 38.3 °F 30.1 °F 14.4 °F 38% 29.98 in 10.0 mi South 13.8 mph - N/A   Clear
8:55 PM 38.3 °F 30.1 °F 14.9 °F 39% 29.97 in 10.0 mi South 13.8 mph - N/A   Clear
9:15 PM 37.6 °F 29.6 °F 15.4 °F 41% 29.99 in 10.0 mi South 12.7 mph - N/A   Clear
9:35 PM 36.7 °F 27.6 °F 16.5 °F 44% 29.99 in 10.0 mi South 15.0 mph - N/A   Clear
9:55 PM 36.5 °F 28.7 °F 17.1 °F 45% 29.99 in 10.0 mi South 11.5 mph - N/A   Clear
10:15 PM 35.8 °F 27.3 °F 17.6 °F 48% 29.98 in 10.0 mi South 12.7 mph - N/A   Clear
10:35 PM 35.8 °F 26.5 °F 17.6 °F 48% 29.97 in 10.0 mi South 15.0 mph - N/A   Clear
10:55 PM 36.1 °F 27.3 °F 17.6 °F 47% 29.97 in 10.0 mi South 13.8 mph - N/A   Scattered Clouds
11:15 PM 35.8 °F 26.9 °F 17.6 °F 48% 29.96 in 10.0 mi South 13.8 mph - N/A   Scattered Clouds
11:35 PM 35.4 °F 26.8 °F 17.6 °F 48% 29.95 in 10.0 mi South 12.7 mph - N/A   Clear
11:55 PM 35.2 °F 25.8 °F 17.6 °F 49% 29.93 in 10.0 mi South 15.0 mph - N/A   Clear